Reflectivity
-20 -20 -20 -20 -19 -14 -3 -9 31 -10 -18 -20 -20 -20 -20 -20 -20 -20 -20 -20 -20 -20 -20 -20 -20 -4 -15 -20 -20 -20 -20 -20 -20 -20 -6 -17 -17 2 -16 -20 -4 -16 -4 -20 -20 -20 6 11 5
-20 -20 -20 -15 -7 14 25 -15 27 20 -20 -20 -20 -20 -20 -20 -20 -20 -10 -20 -20 -20 -20 -20 -20 -2 -12 -20 -20 -20 -20 -20 -20 -20 -20 -1 -20 -20 11 -19 -20 -19 -17 -20 -2 -11 6 -10 -19
-20 -20 -7 -9 -15 20 33 14 28 24 -20 -20 -20 -20 -20 -20 -20 -20 -20 -20 -20 -20 -20 -20 -20 -3 -14 -20 -20 -20 -14 -20 -7 -20 -20 4 -0 -20 -20 -20 -18 -20 -20 8 -8 -15 -19 -20 14
-20 -20 -20 3 17 25 33 22 26 -20 -4 2 -20 -20 -20 -20 -20 -20 -20 -20 -20 -20 -20 -20 -20 -20 -1 -20 -20 -20 7 -20 -20 -20 -20 -16 -20 -8 -20 -20 -20 6 -20 -20 -20 1 -14 -20 -20
-20 -20 -18 10 19 11 16 17 22 20 23 23 -11 -16 -20 12 -20 -20 -20 -20 -20 -20 -20 -20 -1 -20 2 -1 2 -20 -20 -15 -20 -20 -20 -16 7 3 -20 2 -3 -12 -5 -20 27 -20 -20 -20 -20
-20 -18 -10 -2 17 38 16 7 25 27 34 30 21 -9 5 -14 -19 -20 -20 -20 -20 -20 -20 -20 -20 -20 7 -18 2 -20 -19 -17 -20 7 -1 -20 -20 -20 5 3 -19 -19 -11 -5 -20 -20 -20 -20 -20
-20 -13 -20 -1 -20 36 31 27 30 26 25 24 22 -4 13 7 -18 -20 -20 -20 -20 -20 -20 -20 -20 -20 -20 -19 -20 -19 -20 -20 -0 -8 -20 -12 8 -17 -20 17 11 8 -1 -20 -20 -20 -20 -20 -20
-20 -20 -20 -10 23 20 21 25 24 20 2 -20 -20 -20 6 0 -3 -20 -19 -19 -20 -20 -19 -20 10 -20 -20 -20 -20 -6 -20 -13 -13 -20 -20 -20 -20 -20 -20 -18 11 2 -5 -20 -20 -20 -20 -20 -20
-20 -1 -20 -20 -19 -11 3 23 40 32 16 -20 -20 -14 -20 9 -20 -14 1 -1 -19 7 -3 -20 1 -5 -20 -20 -7 -0 13 -20 3 -18 -20 -20 -20 -20 -20 -11 4 -4 -20 -20 -20 -20 -20 -20 -20
-17 -20 -20 -20 -20 21 15 30 31 5 -20 -20 -16 5 8 -4 -19 -20 -20 -20 -20 2 -15 -11 -20 -20 -20 3 -20 -20 -20 -20 -20 -20 -20 -20 -20 -20 -20 9 5 -17 -20 -20 -20 -20 -20 -20 -20
-5 -20 -20 -20 -20 -17 -20 27 -5 -20 10 -3 -20 -10 -0 -20 -20 -20 -20 -20 -20 -20 -11 -20 -20 -20 -20 -20 -20 -20 -20 -20 -20 -20 -20 -20 -20 -20 -20 -20 -20 -20 -20 -20 -20 -20 -20 -20 -20
-20 -20 -20 -20 -20 15 28 -16 29 2 26 10 -15 -20 -20 -20 -20 -20 -20 -20 -20 -20 -8 -20 -20 -20 -20 -20 -20 -20 -20 -20 -20 -20 -20 -20 -20 -20 -20 -20 -20 -20 -20 -20 -20 -20 -20 -20 -20
-20 -20 -20 -20 -20 -20 -20 7 30 33 21 27 -4 -20 -20 -20 -20 -20 -20 -20 -20 -20 -20 -20 -20 -20 -20 -20 -20 -20 -20 -20 -20 -20 -20 -20 -20 -20 -20 -20 -20 -20 -20 -20 -20 -20 -20 -20 -20
-20 -20 -20 -20 -20 -20 -20 21 4 3 -2 19 11 -20 -20 -20 -20 -20 -20 -20 -20 -20 -20 -20 -20 -20 -20 -20 -20 -20 -20 -20 -20 -20 -20 -20 -20 -20 -20 -20 -20 -20 -20 -20 -20 -20 -16 -20 -20
-20 -20 -20 -20 -20 -20 -20 -20 -20 -12 -19 11 30 -4 -20 -20 -20 -20 -20 -20 -20 -20 -20 -20 -20 -20 -20 -20 -20 -20 -20 -20 -20 -20 -20 -20 -20 -20 -20 -20 -20 -20 -20 -20 -20 -20 -20 -20 -20
-20 -20 -20 -20 -20 -20 -2 -10 -13 4 30 13 10 6 -20 -20 -20 -20 -20 -20 -20 -20 -20 -20 -20 -20 -20 -20 -20 -20 -20 -20 -20 -20 -20 -20 -20 -20 -20 -20 -20 -20 -20 -20 -20 -20 -20 -20 -20
-20 -20 -20 -20 -20 -20 8 -20 -20 -8 20 24 -5 -20 -20 -20 -17 -20 -20 -20 -20 -20 -20 -20 -20 -20 -20 -20 -20 -20 -20 -20 -20 -20 -20 7 -20 -20 -20 -20 -20 -20 -20 -20 -20 -20 -20 -20 -20
-20 -20 -20 -20 -20 -20 -20 -20 -20 -15 -20 -17 -20 -20 -20 -20 -20 -20 -20 -20 -20 -20 -20 -20 -20 -20 -20 -20 -20 -20 -20 -20 -20 -20 -20 -20 -20 -20 -20 -20 -20 -20 -20 -20 -20 -20 -20 -20 -20
-20 -20 -20 -20 -20 -20 -20 -20 -20 36 -10 -19 -20 -20 -20 -20 -19 -20 -20 -20 -20 -20 -20 -20 -20 -20 -20 -20 -20 -20 -20 -20 -20 -20 -20 -20 -20 -20 -20 -20 -20 -20 -20 -20 -20 -20 -20 -20 -20
-20 -20 -20 -20 -20 -20 -20 -20 -20 -20 -8 -11 -20 -20 -20 -20 -20 -20 -20 -20 -20 -20 -20 -20 -20 -20 -20 -20 -20 -20 -20 -20 -20 -20 -20 -20 -20 -20 -20 -20 -20 -20 -20 -20 -20 -20 -20 -20 -20
-20 -20 -20 -20 -20 -20 -20 -20 -20 -20 -20 -20 -20 -20 -20 -20 -20 -20 -20 -20 -20 -20 -20 -20 -20 -20 -20 -20 -20 -20 -20 -20 -20 -20 -20 -20 -20 -20 6 -20 -20 -20 -20 -20 -20 -20 -20 -20 -20
-20 -20 -20 -20 -20 -20 -20 -20 -20 -20 -20 -20 -20 -17 -20 -20 -20 -20 -20 -20 -20 -20 -20 -20 -20 -20 -20 -20 -20 -20 -20 -20 -20 -20 -10 -20 -20 -20 -20 -20 23 -20 -20 -20 -20 -20 -20 -20 -20
-20 -20 -20 -20 -20 -20 -20 -20 -20 -20 -20 -20 -20 -20 -20 -20 -20 -20 -20 -20 -20 -20 -20 -20 -20 -20 -20 -20 -20 -20 -20 -20 -20 -20 -20 -20 -20 -20 -19 -20 6 -20 -20 -20 -20 -20 -20 -20 -20
-20 -20 -20 -20 -20 -20 -20 -20 -20 -20 23 -20 -18 -18 -20 -20 -20 -20 -20 -20 -20 -20 -20 -20 -20 -20 -20 -20 -20 -20 -20 -20 -20 -20 -20 -20 -20 -20 -20 15 -20 -20 -20 -20 -20 -20 -20 -20 -20
-20 -20 -20 -20 -20 -20 -20 -20 -20 -20 16 -19 -20 -20 -20 -20 -20 -20 -20 -20 -20 -20 -20 -20 -20 -20 -20 -20 -20 -20 -20 -20 -20 -20 -20 -20 -20 -20 -20 -20 -20 -20 -20 -20 -20 -20 -20 -20 -20
-20 -20 -20 -20 -20 -20 -20 -20 -20 -20 -16 -20 -9 -20 -20 -20 -20 -20 -20 -20 -20 -20 -20 -20 -20 -20 -20 -20 -20 -20 -20 -20 -20 -20 -20 -20 -20 -20 -20 -20 -20 -20 34 -20 -20 -20 -20 -20 -20
-20 -20 -20 -20 -20 -20 -20 -20 -20 -20 -20 -20 -20 -20 -20 -20 -20 -20 -20 -20 -20 -20 -20 -20 -20 -20 -20 -20 -20 -20 -20 -20 -20 -20 -20 -20 -20 -20 -20 -20 3 -20 30 -20 -20 -20 -20 -20 -20
-20 -20 -20 -20 -20 -20 -20 -20 -20 -20 -20 -20 -20 -20 -20 -20 -20 -20 -20 -20 -20 -20 -20 -20 -20 -20 -20 -20 -20 -20 -20 -20 -20 -20 -20 -20 -20 -20 -20 -20 -20 -20 -20 -13 -20 -20 -20 -20 -20
-20 -20 -20 -20 -20 -20 -20 -20 -20 -20 -20 -10 -5 -20 -20 -20 -20 -20 -20 -20 -20 -20 -20 -20 -20 -20 -20 -20 -20 -20 -20 -20 -20 -20 -20 -20 -20 -20 -20 -20 -20 -20 -20 -20 -20 -20 -20 -20 -20
-20 -20 -20 -20 -20 -20 -20 -20 -20 -20 -20 8 7 -20 -20 -20 -20 -20 -20 -20 -20 -20 -20 -20 -20 -20 -20 -20 -20 -20 -20 -20 -20 -20 -20 -20 -20 -20 -20 -20 -20 -20 -20 -20 -20 -20 -20 -20 -20
Wind_Speed
6 5 2 2 2 2 3 2 2 2 3 3 14 5 8 4 2 3 4 5 14 11 6 6 10 10 12 11 11 10 9 11 10 11 11 10 10 10 11 10 9 11 12 10 11 11 11 11 11
4 4 1 2 1 2 1 2 3 3 3 18 6 8 3 4 4 10 8 9 15 10 6 5 9 10 11 10 10 9 8 10 8 9 8 9 10 10 9 11 10 10 11 10 9 12 10 11 11
6 3 1 1 2 2 1 2 5 8 11 10 5 8 4 3 8 11 7 15 13 8 7 7 11 11 12 11 10 8 7 9 6 9 8 9 10 11 11 10 10 10 10 10 10 10 10 10 9
4 1 2 2 6 2 2 1 1 6 6 10 4 7 5 2 11 6 12 15 13 8 7 10 12 12 13 12 10 9 7 8 6 7 8 8 9 11 12 12 10 10 10 10 9 10 9 9 11
2 1 1 3 4 4 3 2 5 3 5 5 3 4 7 3 14 14 13 13 13 7 6 8 12 12 12 11 10 9 7 7 8 7 7 8 8 9 10 10 12 11 10 10 10 10 10 11 10
0 1 1 3 7 5 2 6 7 0 4 6 8 6 3 12 14 11 11 11 11 10 7 6 11 11 12 11 10 8 9 8 7 6 7 8 8 8 8 9 10 10 11 11 11 10 9 10 10
1 1 2 3 3 4 3 2 5 5 6 7 9 6 7 11 11 11 9 11 9 8 7 5 5 8 11 10 9 10 9 8 7 8 6 5 8 7 9 9 10 11 11 11 11 10 10 10 10
2 1 3 1 4 6 4 7 5 5 9 12 12 7 9 13 13 11 9 8 8 6 5 5 5 5 5 5 11 10 9 9 7 7 8 8 8 6 8 8 9 11 10 11 10 9 9 9 10
2 1 2 3 0 5 11 6 2 9 8 4 2 7 15 17 16 14 12 9 10 6 5 4 5 5 5 4 6 9 9 9 8 7 7 7 4 4 6 6 9 10 10 10 9 8 8 10 9
2 1 3 1 3 5 7 8 7 5 6 11 16 19 19 18 18 17 15 14 13 12 6 4 5 5 5 3 5 5 3 4 4 4 5 4 4 3 2 5 8 9 9 9 7 7 7 6 3
2 3 1 1 5 12 10 11 5 10 5 9 18 20 19 19 17 17 12 12 13 13 8 5 5 5 4 4 3 2 2 2 2 4 3 3 3 2 2 2 2 3 6 3 4 4 3 3 2
3 8 6 2 7 8 6 9 5 3 6 14 15 18 16 18 14 12 11 12 12 13 10 6 6 5 4 3 3 3 2 2 2 2 2 1 2 2 2 1 2 3 2 3 3 2 2 3 3
8 5 6 5 8 8 9 5 10 8 10 13 17 18 16 14 13 10 8 8 9 13 7 7 6 6 4 5 3 3 3 2 2 1 1 2 2 2 2 1 1 2 2 1 1 2 2 2 4
1 5 10 4 10 8 9 6 10 10 17 12 17 17 16 16 14 9 9 8 10 8 7 6 6 6 5 4 4 3 2 2 2 2 2 3 2 3 2 1 0 1 1 1 1 1 1 1 2
5 3 4 6 5 5 14 5 5 13 15 18 15 16 18 17 15 14 14 12 13 9 9 8 6 6 6 5 4 3 3 3 2 2 4 4 3 3 3 2 0 2 1 0 0 2 0 3 3
4 4 5 2 1 6 1 1 6 13 13 16 20 18 17 17 19 13 13 12 11 9 10 7 9 7 6 6 4 3 3 3 3 3 3 4 4 4 3 2 2 2 0 1 2 2 2 3 2
6 2 3 3 3 5 3 1 6 9 10 12 17 19 16 17 16 13 14 13 13 11 12 10 8 9 7 6 4 4 4 3 3 3 3 3 3 3 2 3 2 2 0 0 0 2 1 2 2
3 4 2 2 5 1 4 1 7 9 11 10 18 20 17 17 19 16 14 14 12 10 11 12 9 8 6 4 3 1 2 2 2 3 4 4 3 4 4 2 2 1 1 1 1 2 2 1 1
3 4 0 3 3 2 7 4 9 8 5 10 15 13 16 16 17 15 15 15 13 8 8 10 10 8 7 3 3 2 3 2 2 3 5 4 3 3 3 3 3 2 2 1 1 2 2 1 1
2 3 3 5 3 5 2 2 4 6 5 7 10 13 12 14 14 14 14 14 14 15 14 10 10 9 9 6 3 3 3 2 2 2 3 5 4 4 4 4 3 3 1 2 3 2 1 1 1
2 4 3 5 2 3 6 1 2 3 1 1 2 6 8 16 14 16 15 17 16 14 14 13 12 10 10 7 4 3 4 3 2 2 2 3 4 5 4 4 4 4 3 3 2 3 3 2 1
1 7 6 3 2 1 0 3 3 5 7 6 6 6 7 12 14 15 17 16 17 17 15 14 12 10 9 9 6 6 4 4 3 4 3 3 4 5 4 4 4 4 3 3 3 2 2 2 2
8 6 6 3 2 3 1 5 6 3 4 10 12 13 11 10 15 16 18 19 18 15 16 16 13 10 10 12 9 7 5 3 3 2 5 4 3 4 4 4 4 4 3 3 3 3 3 2 3
6 6 8 5 4 3 3 5 5 3 6 5 13 16 15 14 13 14 17 17 16 15 13 13 14 12 10 12 9 10 10 7 4 4 4 3 3 3 4 3 3 3 3 4 3 2 3 3 3
6 7 3 4 3 5 2 5 7 9 12 7 13 20 18 16 15 12 17 17 15 16 15 13 14 14 11 12 11 10 10 9 9 6 5 4 3 3 5 5 4 3 4 4 3 3 3 3 2
5 8 7 6 6 4 3 5 1 6 10 15 4 13 13 14 14 16 14 16 16 18 17 17 15 14 12 11 12 9 8 7 6 7 4 5 5 5 4 5 4 5 4 4 4 2 3 3 3
4 5 3 9 2 4 2 4 6 18 19 21 18 2 5 9 13 13 11 15 15 16 17 18 17 16 13 14 11 10 8 8 8 7 5 5 5 4 5 5 6 5 5 5 4 4 4 3 2
8 1 4 4 4 2 3 4 4 17 20 20 19 16 11 7 7 10 9 15 14 15 16 17 17 18 16 16 13 11 11 9 8 8 8 7 5 5 5 6 6 6 6 6 5 4 4 4 3
7 6 6 6 3 7 4 2 7 7 11 17 18 17 16 9 9 8 6 10 14 13 13 15 14 15 13 12 11 10 9 9 7 9 9 8 5 6 6 7 7 7 7 6 5 5 5 5 4
5 3 3 5 4 2 4 2 6 10 13 16 17 18 20 18 6 5 5 6 6 7 9 10 11 12 13 13 13 11 9 9 9 9 9 9 9 6 7 7 7 7 7 7 8 8 6 7 6
Wind_Direction
142 121 145 49 53 118 248 337 139 206 160 152 149 145 161 74 162 196 138 155 129 139 154 152 149 144 132 127 124 121 112 104 100 97 106 116 109 96 114 110 102 107 105 104 109 104 108 114 104
137 141 59 113 78 255 335 31 128 348 16 141 139 113 75 92 94 126 131 153 132 135 136 139 145 150 141 136 129 118 113 108 110 111 106 104 107 106 103 105 110 109 113 123 113 110 112 109 109
161 257 80 244 201 192 256 31 293 334 130 138 102 47 49 56 112 139 129 136 125 125 124 145 152 152 151 147 135 123 120 119 124 106 96 98 104 97 106 101 105 103 117 110 105 110 112 113 117
166 287 325 259 245 217 196 125 313 341 82 55 94 64 62 203 135 140 138 131 120 122 127 144 145 146 155 152 143 140 136 121 113 113 103 100 100 102 104 101 93 108 104 110 111 110 112 111 101
346 265 267 269 263 93 215 176 134 319 53 61 22 87 110 56 110 129 136 130 125 122 130 137 144 150 158 150 152 145 138 134 112 116 114 101 112 97 101 106 107 97 110 103 98 107 106 104 101
67 236 292 299 13 75 14 139 121 283 102 118 97 103 83 126 124 137 133 127 130 133 125 140 150 149 158 157 149 143 138 132 122 125 110 115 109 104 106 103 106 105 103 102 99 96 89 88 110
169 263 254 283 85 38 346 351 132 131 136 131 154 106 114 135 133 128 124 122 124 120 121 127 146 156 152 154 142 147 136 133 139 110 110 109 115 125 110 113 102 101 111 109 104 97 86 81 103
172 257 291 288 140 182 231 149 125 108 77 122 145 151 155 149 132 119 117 112 100 99 111 129 121 119 128 137 147 145 144 137 119 129 133 130 113 108 93 88 98 103 107 109 112 105 92 95 103
243 291 293 326 135 129 140 112 343 282 146 102 173 133 131 132 128 125 131 129 134 112 110 129 122 130 129 149 150 144 142 133 138 118 118 74 72 61 70 106 101 105 109 114 117 116 107 103 98
209 192 238 219 140 149 124 129 140 144 145 89 93 105 128 134 145 147 154 155 158 155 142 138 126 134 136 132 101 96 109 86 79 85 85 90 85 101 89 110 100 104 118 123 125 121 102 82 71
205 225 242 275 92 130 144 166 163 137 81 148 141 135 144 147 154 156 163 165 166 162 162 157 146 143 134 113 111 102 86 96 80 90 79 97 87 55 65 47 61 59 75 52 67 34 46 49 38
272 232 252 179 132 126 179 140 131 120 110 153 139 141 145 157 160 162 163 165 161 168 169 161 159 142 140 127 125 124 123 113 107 120 101 110 103 103 99 94 83 61 57 69 54 68 45 356 339
224 261 257 235 160 154 136 144 135 129 131 131 139 150 158 163 170 171 159 151 158 170 167 173 159 146 154 143 126 133 157 142 144 146 202 151 149 149 121 105 92 100 76 115 94 78 77 18 353
301 248 269 289 158 155 129 149 148 164 151 164 155 166 168 173 172 157 163 159 161 163 171 170 166 155 158 149 157 160 153 168 160 166 191 202 187 169 169 149 328 65 100 122 179 69 5 352 13
274 320 341 26 117 141 126 149 227 153 166 159 175 181 174 175 171 178 178 175 172 172 165 176 162 157 167 160 168 162 176 194 203 189 204 204 211 207 155 159 290 295 3 148 175 52 41 55 64
13 41 9 52 125 161 122 157 128 154 177 159 183 179 176 177 181 180 176 171 171 162 169 171 177 170 174 171 174 179 192 196 204 181 186 202 212 211 182 162 194 217 147 349 30 21 0 51 62
12 121 40 20 192 146 151 97 155 164 183 172 182 177 177 178 181 180 175 179 177 168 167 176 168 175 180 175 172 184 206 210 200 173 182 227 222 209 189 172 190 235 192 103 202 74 58 55 49
182 92 13 349 216 206 165 232 157 181 186 186 175 175 178 180 185 182 178 184 175 171 176 179 171 170 165 149 129 167 188 189 183 197 191 194 224 222 165 168 187 219 239 135 62 106 64 93 132
134 110 204 287 205 189 225 194 184 182 172 171 189 182 178 184 184 180 179 180 172 160 166 185 173 166 157 154 154 158 176 169 186 203 194 185 206 201 208 161 165 170 195 145 155 90 142 102 153
138 104 288 261 253 184 22 80 107 186 194 181 182 202 179 180 171 181 182 178 180 178 183 177 185 172 177 175 171 160 149 156 154 152 191 187 193 190 187 169 180 169 160 110 154 139 120 101 146
118 160 211 223 55 50 114 75 157 183 137 241 184 181 198 184 176 182 182 183 184 181 186 183 186 183 178 163 130 94 89 80 95 138 217 210 196 189 188 185 169 173 165 162 169 137 141 145 87
158 212 208 276 54 138 67 287 274 195 190 211 213 219 194 190 185 180 183 188 185 191 188 184 176 185 183 165 168 165 155 146 197 174 180 185 194 205 184 184 178 179 188 163 167 148 145 141 128
215 160 182 216 132 104 11 75 262 131 237 217 217 215 208 199 192 184 185 187 193 188 184 185 180 178 189 182 180 163 159 159 138 145 167 179 212 223 186 195 164 175 178 178 182 170 146 117 129
122 81 39 47 79 45 206 129 286 216 220 221 218 220 211 203 199 188 191 185 190 190 189 185 175 187 189 185 183 174 171 166 155 166 180 188 192 211 213 187 192 190 179 179 201 208 179 151 132
91 79 23 33 35 200 23 74 231 287 330 301 224 213 206 209 197 191 184 186 182 182 187 188 186 188 187 191 186 191 182 174 181 178 181 170 186 204 214 185 187 194 195 191 177 192 193 184 177
162 156 150 162 170 205 19 179 279 331 327 352 289 210 208 199 195 201 189 188 185 184 187 188 191 193 182 193 196 194 185 182 181 181 177 189 197 203 182 197 197 200 182 188 183 200 220 208 219
170 76 169 107 19 88 245 324 328 353 2 2 11 33 232 207 197 190 175 187 187 188 190 191 192 197 189 195 193 194 189 186 187 179 182 188 195 202 184 192 194 200 197 188 181 200 218 222 217
93 94 71 10 125 146 347 66 311 342 344 350 0 354 324 234 186 187 179 185 192 194 191 193 196 196 193 194 192 197 195 198 191 179 190 188 196 193 180 194 198 199 202 187 183 196 205 209 220
9 16 30 108 104 151 140 282 10 333 351 353 358 355 342 270 201 196 200 187 190 192 193 197 196 198 194 194 208 192 197 189 198 196 195 195 182 185 192 196 205 193 206 206 189 203 201 212 225
67 68 101 118 212 55 121 215 16 15 15 11 8 12 12 23 35 96 113 146 168 169 180 184 197 201 204 197 192 195 186 190 195 211 201 186 199 184 197 195 202 211 201 198 202 204 209 205 217